Location: Passau
(48.5830°N, 13.4830°E)
Time: 01:29:25
(UTC+02:00)

Explorer 7 - Visible Passes

Search period start: 29 July 2021 00:00
Search period end: 08 August 2021 00:00
Orbit: 484 x 676 km, 50.3° (Epoch: 28 July)

Date Brightness Start Highest point End Pass type
(mag) Time Alt. Az. Time Alt. Az. Time Alt. Az.
03 Aug 9.2 04:09:48 10° SE 04:10:19 10° SE 04:10:50 10° SE visible
04 Aug 8.8 04:12:09 11° S 04:14:20 16° SE 04:16:44 10° E visible
05 Aug 8.2 04:16:17 15° S 04:18:25 24° SE 04:21:33 10° E visible
06 Aug 7.6 04:20:23 18° SSW 04:22:34 34° SSE 04:26:05 10° E visible
07 Aug 9.2 02:48:10 10° ESE 02:48:10 10° ESE 02:48:17 10° ESE visible
07 Aug 7.0 04:24:26 20° SW 04:26:46 49° SSE 04:30:30 10° ENE visible
